�������l�o���
Date,Time,MP-1(��Sv/h),MP-2(��Sv/h),MP-3(��Sv/h),MP-4(��Sv/h),MP-5(��Sv/h),MP-6(��Sv/h),MP-7(��Sv/h),MP-8(��Sv/h),����,����(m/s),���J
2024/04/16,00:00,0.504,0.772,0.484,0.945,0.681,0.316,0.549,0.515,��,2.9,��
2024/04/16,00:10,0.502,0.771,0.485,0.944,0.681,0.315,0.550,0.515,��,3.7,��
2024/04/16,00:20,0.502,0.772,0.486,0.945,0.682,0.316,0.549,0.516,��,3.8,��
2024/04/16,00:30,0.504,0.772,0.486,0.945,0.681,0.316,0.547,0.516,��,5.3,��
2024/04/16,00:40,0.503,0.773,0.485,0.945,0.679,0.314,0.549,0.516,��,5.2,��
2024/04/16,00:50,0.504,0.771,0.487,0.943,0.682,0.316,0.549,0.516,��,5.1,��
2024/04/16,01:00,0.503,0.772,0.484,0.945,0.678,0.316,0.550,0.517,��,4.1,��
2024/04/16,01:10,0.503,0.772,0.485,0.945,0.680,0.316,0.550,0.516,��,3.5,��
2024/04/16,01:20,0.505,0.773,0.486,0.944,0.680,0.316,0.548,0.513,��,4.5,��
2024/04/16,01:30,0.504,0.771,0.486,0.946,0.681,0.316,0.550,0.514,��,5.3,��
2024/04/16,01:40,0.504,0.771,0.485,0.945,0.681,0.317,0.550,0.515,��쐼,4.8,��
2024/04/16,01:50,0.505,0.773,0.486,0.944,0.680,0.315,0.549,0.514,��쐼,5.2,��
2024/04/16,02:00,0.503,0.771,0.485,0.946,0.680,0.315,0.549,0.516,��쐼,4.6,��
2024/04/16,02:10,0.503,0.768,0.484,0.944,0.681,0.315,0.548,0.515,��,4.3,��
2024/04/16,02:20,0.504,0.770,0.486,0.944,0.679,0.315,0.549,0.516,��,4.4,��
2024/04/16,02:30,0.506,0.769,0.485,0.943,0.680,0.314,0.549,0.515,��,3.9,��
2024/04/16,02:40,0.504,0.770,0.485,0.945,0.681,0.314,0.550,0.516,��,3.2,��
2024/04/16,02:50,0.504,0.769,0.485,0.944,0.681,0.315,0.550,0.516,��,2.6,��
2024/04/16,03:00,0.503,0.773,0.485,0.948,0.683,0.316,0.551,0.515,��,2.3,��
2024/04/16,03:10,0.503,0.772,0.485,0.945,0.680,0.316,0.549,0.515,��,2.3,��
2024/04/16,03:20,0.504,0.772,0.484,0.944,0.680,0.315,0.551,0.515,��쐼,1.7,��
2024/04/16,03:30,0.504,0.770,0.485,0.946,0.679,0.315,0.548,0.516,��,1.7,��
2024/04/16,03:40,0.505,0.772,0.487,0.944,0.680,0.315,0.549,0.516,��,1.9,��
2024/04/16,03:50,0.503,0.773,0.485,0.944,0.680,0.315,0.550,0.516,��쐼,1.4,��
2024/04/16,04:00,0.503,0.773,0.485,0.943,0.679,0.315,0.550,0.516,��,1.5,��
2024/04/16,04:10,0.503,0.771,0.486,0.944,0.679,0.316,0.548,0.515,��쐼,2.2,��
2024/04/16,04:20,0.504,0.771,0.486,0.946,0.678,0.315,0.551,0.515,��쐼,2.9,��
2024/04/16,04:30,0.503,0.771,0.485,0.945,0.680,0.315,0.550,0.517,��쐼,3.3,��
2024/04/16,04:40,0.504,0.771,0.485,0.944,0.679,0.314,0.550,0.516,��쐼,0.6,��
2024/04/16,04:50,0.503,0.771,0.485,0.943,0.680,0.315,0.550,0.516,��쐼,0.8,��
2024/04/16,05:00,0.504,0.770,0.486,0.944,0.678,0.315,0.549,0.516,-,CALM,��
2024/04/16,05:10,0.501,0.772,0.486,0.945,0.680,0.314,0.548,0.516,��,0.9,��
2024/04/16,05:20,0.504,0.772,0.486,0.944,0.681,0.314,0.549,0.516,���쓌,1.2,��
2024/04/16,05:30,0.505,0.771,0.485,0.943,0.681,0.315,0.550,0.515,���k��,1.4,��
2024/04/16,05:40,0.503,0.773,0.485,0.945,0.680,0.314,0.550,0.514,�k��,1.5,��
2024/04/16,05:50,0.505,0.771,0.484,0.946,0.680,0.313,0.549,0.516,���k��,1.5,��
2024/04/16,06:00,0.504,0.772,0.487,0.945,0.680,0.315,0.550,0.516,�k�k��,1.2,��
2024/04/16,06:10,0.505,0.773,0.486,0.945,0.680,0.315,0.550,0.514,�k�k��,0.9,��
2024/04/16,06:20,0.504,0.772,0.486,0.946,0.681,0.316,0.550,0.517,���k��,0.6,��
2024/04/16,06:30,0.504,0.771,0.488,0.947,0.680,0.314,0.550,0.517,-,CALM,��
2024/04/16,06:40,0.505,0.773,0.484,0.945,0.680,0.316,0.551,0.516,-,CALM,��
2024/04/16,06:50,0.505,0.773,0.487,0.946,0.682,0.315,0.551,0.515,���쐼,0.8,��
2024/04/16,07:00,0.505,0.772,0.486,0.947,0.680,0.315,0.551,0.517,�쐼,0.8,��
2024/04/16,07:10,0.505,0.771,0.487,0.945,0.679,0.314,0.551,0.517,��,0.6,��
2024/04/16,07:20,0.506,0.771,0.486,0.947,0.681,0.315,0.550,0.516,-,CALM,��
2024/04/16,07:30,0.504,0.773,0.487,0.946,0.680,0.315,0.552,0.517,-,CALM,��
2024/04/16,07:40,0.506,0.772,0.487,0.946,0.683,0.315,0.551,0.516,-,CALM,��
2024/04/16,07:50,0.504,0.771,0.487,0.945,0.680,0.315,0.552,0.516,��쓌,0.6,��
2024/04/16,08:00,0.504,0.774,0.488,0.947,0.681,0.314,0.552,0.517,-,CALM,��
2024/04/16,08:10,0.506,0.772,0.487,0.944,0.682,0.314,0.551,0.516,��쓌,1.7,��
2024/04/16,08:20,0.505,0.773,0.486,0.947,0.680,0.314,0.549,0.517,��쓌,3.1,��
2024/04/16,08:30,0.506,0.771,0.485,0.946,0.681,0.313,0.551,0.516,�쓌,2.6,��
2024/04/16,08:40,0.505,0.770,0.486,0.948,0.680,0.314,0.549,0.516,��쓌,1.7,��
2024/04/16,08:50,0.506,0.771,0.485,0.947,0.680,0.314,0.549,0.514,��쓌,3.3,��
2024/04/16,09:00,0.505,0.771,0.485,0.947,0.682,0.315,0.549,0.513,��쓌,4.9,��
2024/04/16,09:10,0.505,0.772,0.485,0.946,0.683,0.313,0.550,0.514,��쓌,6.5,��
2024/04/16,09:20,0.503,0.770,0.486,0.946,0.680,0.314,0.550,0.515,��,6.1,��
2024/04/16,09:30,0.504,0.770,0.485,0.948,0.679,0.314,0.550,0.515,��쓌,6.3,��
2024/04/16,09:40,0.504,0.770,0.485,0.948,0.680,0.315,0.550,0.515,��,7.6,��
2024/04/16,09:50,0.505,0.770,0.485,0.946,0.679,0.313,0.549,0.514,��쓌,9.2,��
2024/04/16,10:00,0.501,0.772,0.484,0.946,0.679,0.314,0.550,0.515,��쓌,9.6,��
2024/04/16,10:10,0.502,0.772,0.484,0.947,0.679,0.314,0.550,0.515,��,8.8,��
2024/04/16,10:20,0.504,0.770,0.485,0.946,0.681,0.315,0.551,0.514,��,8.1,��
2024/04/16,10:30,0.504,0.771,0.485,0.949,0.681,0.315,0.550,0.515,��쓌,9.6,��
2024/04/16,10:40,0.504,0.772,0.486,0.948,0.681,0.314,0.550,0.515,��,9.3,��
2024/04/16,10:50,0.504,0.770,0.487,0.947,0.681,0.314,0.551,0.515,��쓌,11.0,��
2024/04/16,11:00,0.505,0.770,0.485,0.948,0.682,0.313,0.550,0.515,��,11.9,��
2024/04/16,11:10,0.505,0.771,0.485,0.948,0.679,0.314,0.551,0.516,��쓌,13.8,��
2024/04/16,11:20,0.504,0.768,0.485,0.947,0.682,0.315,0.551,0.515,��,13.3,��
2024/04/16,11:30,0.505,0.772,0.486,0.947,0.681,0.314,0.551,0.515,��쓌,14.6,��
2024/04/16,11:40,0.505,0.771,0.484,0.945,0.680,0.314,0.551,0.516,��쓌,14.9,��
2024/04/16,11:50,0.504,0.772,0.486,0.945,0.682,0.315,0.550,0.515,��쓌,14.2,��
2024/04/16,12:00,0.506,0.773,0.485,0.946,0.682,0.314,0.550,0.515,��쓌,15.0,��
2024/04/16,12:10,0.506,0.773,0.484,0.947,0.681,0.315,0.549,0.514,��쓌,14.7,��
2024/04/16,12:20,0.506,0.772,0.487,0.948,0.683,0.314,0.551,0.515,��쓌,13.3,��
2024/04/16,12:30,0.505,0.774,0.488,0.947,0.680,0.316,0.552,0.516,��쓌,13.3,��
2024/04/16,12:40,0.505,0.773,0.486,0.949,0.683,0.314,0.550,0.516,��쓌,16.1,��
2024/04/16,12:50,0.505,0.773,0.486,0.948,0.681,0.315,0.551,0.515,��쓌,15.0,��
2024/04/16,13:00,0.505,0.773,0.485,0.948,0.682,0.314,0.552,0.516,��쓌,17.1,��
2024/04/16,13:10,0.505,0.771,0.486,0.947,0.683,0.313,0.551,0.516,��쓌,14.4,��
2024/04/16,13:20,0.505,0.770,0.485,0.948,0.681,0.315,0.550,0.516,��,13.0,��
2024/04/16,13:30,0.505,0.771,0.485,0.950,0.683,0.314,0.550,0.516,��쓌,15.0,��
2024/04/16,13:40,0.505,0.771,0.488,0.948,0.679,0.315,0.551,0.514,��쓌,14.1,��
2024/04/16,13:50,0.505,0.771,0.486,0.948,0.681,0.316,0.551,0.516,��쓌,13.8,��
2024/04/16,14:00,0.506,0.772,0.487,0.947,0.679,0.315,0.551,0.516,��쓌,13.0,��
2024/04/16,14:10,0.503,0.774,0.485,0.948,0.682,0.314,0.549,0.514,��쓌,13.0,��
2024/04/16,14:20,0.505,0.774,0.486,0.949,0.683,0.316,0.550,0.515,��,12.2,��
2024/04/16,14:30,0.504,0.772,0.487,0.948,0.682,0.315,0.551,0.514,��쓌,14.2,��
2024/04/16,14:40,0.505,0.775,0.486,0.946,0.680,0.314,0.551,0.516,��쓌,12.7,��
2024/04/16,14:50,0.504,0.772,0.486,0.949,0.682,0.315,0.552,0.515,��쓌,13.1,��
2024/04/16,15:00,0.505,0.772,0.486,0.949,0.683,0.315,0.551,0.515,��쓌,13.9,��
2024/04/16,15:10,0.504,0.773,0.486,0.948,0.680,0.315,0.552,0.515,��,11.9,��
2024/04/16,15:20,0.505,0.773,0.487,0.951,0.677,0.315,0.550,0.515,��,12.5,��
2024/04/16,15:30,0.504,0.773,0.487,0.947,0.680,0.313,0.551,0.516,��,11.6,��
2024/04/16,15:40,0.505,0.774,0.484,0.950,0.682,0.312,0.550,0.516,��,11.1,��
2024/04/16,15:50,0.505,0.773,0.485,0.949,0.683,0.314,0.550,0.514,��,13.8,��
2024/04/16,16:00,0.505,0.771,0.485,0.950,0.685,0.314,0.551,0.515,��,11.6,��
2024/04/16,16:10,0.506,0.773,0.484,0.949,0.683,0.314,0.551,0.515,��,11.4,��
2024/04/16,16:20,0.503,0.773,0.484,0.951,0.682,0.313,0.551,0.517,��,11.3,�L
2024/04/16,16:30,0.504,0.771,0.485,0.948,0.682,0.314,0.550,0.514,��,11.3,�L
2024/04/16,16:40,0.504,0.772,0.487,0.950,0.681,0.313,0.550,0.517,��,11.6,��
2024/04/16,16:50,0.505,0.772,0.486,0.951,0.681,0.313,0.551,0.517,��,11.6,��
2024/04/16,17:00,0.504,0.772,0.486,0.949,0.682,0.314,0.551,0.517,��,9.2,��
2024/04/16,17:10,0.503,0.773,0.485,0.949,0.683,0.315,0.552,0.516,��,7.9,��
2024/04/16,17:20,0.504,0.774,0.485,0.951,0.685,0.314,0.551,0.515,��,8.0,��
2024/04/16,17:30,0.504,0.772,0.488,0.952,0.683,0.314,0.550,0.515,��,8.3,��
2024/04/16,17:40,0.504,0.773,0.487,0.951,0.681,0.314,0.550,0.516,��,8.9,��
2024/04/16,17:50,0.506,0.773,0.487,0.952,0.682,0.314,0.552,0.516,��,9.9,��
2024/04/16,18:00,0.506,0.773,0.484,0.951,0.681,0.314,0.550,0.517,��,9.6,��
2024/04/16,18:10,0.504,0.774,0.487,0.952,0.682,0.315,0.550,0.517,��,9.5,��
2024/04/16,18:20,0.505,0.775,0.487,0.951,0.683,0.315,0.551,0.517,��,9.0,�L
2024/04/16,18:30,0.504,0.772,0.486,0.952,0.683,0.314,0.550,0.517,��,6.8,�L
2024/04/16,18:40,0.506,0.773,0.487,0.950,0.682,0.314,0.551,0.517,��,8.3,��
2024/04/16,18:50,0.504,0.773,0.486,0.951,0.682,0.314,0.552,0.517,��,8.3,��
2024/04/16,19:00,0.506,0.775,0.490,0.950,0.683,0.315,0.554,0.518,��,8.5,�L
2024/04/16,19:10,0.505,0.774,0.488,0.951,0.683,0.315,0.552,0.517,��,9.1,�L
2024/04/16,19:20,0.507,0.775,0.489,0.953,0.684,0.315,0.552,0.518,��,9.1,�L
2024/04/16,19:30,0.506,0.776,0.490,0.952,0.683,0.316,0.552,0.517,��,8.5,�L
2024/04/16,19:40,0.505,0.775,0.490,0.951,0.685,0.316,0.553,0.517,��,9.1,��
2024/04/16,19:50,0.505,0.773,0.489,0.951,0.684,0.316,0.553,0.516,��,8.5,�L
2024/04/16,20:00,0.506,0.776,0.486,0.950,0.683,0.316,0.552,0.518,��,8.2,��
2024/04/16,20:10,0.506,0.775,0.489,0.950,0.685,0.316,0.553,0.517,��,6.9,��
2024/04/16,20:20,0.507,0.776,0.487,0.950,0.684,0.315,0.553,0.518,��,7.7,��
2024/04/16,20:30,0.507,0.774,0.488,0.950,0.685,0.316,0.553,0.518,��,6.6,��
2024/04/16,20:40,0.507,0.775,0.487,0.949,0.684,0.316,0.555,0.518,��,7.7,��
2024/04/16,20:50,0.507,0.776,0.487,0.953,0.688,0.316,0.554,0.518,��,7.8,��
2024/04/16,21:00,0.507,0.775,0.488,0.952,0.685,0.317,0.555,0.517,��,8.4,��
2024/04/16,21:10,0.507,0.776,0.488,0.951,0.683,0.316,0.554,0.517,��,9.1,��
2024/04/16,21:20,0.505,0.776,0.489,0.950,0.686,0.317,0.554,0.517,��,8.4,��
2024/04/16,21:30,0.508,0.775,0.487,0.950,0.684,0.316,0.556,0.517,��,8.3,��
2024/04/16,21:40,0.506,0.775,0.488,0.950,0.685,0.316,0.554,0.516,��,8.0,��
2024/04/16,21:50,0.505,0.775,0.488,0.952,0.686,0.315,0.555,0.519,��,7.5,��
2024/04/16,22:00,0.506,0.774,0.487,0.950,0.684,0.316,0.553,0.517,��,6.6,��
2024/04/16,22:10,0.507,0.774,0.488,0.951,0.684,0.316,0.553,0.518,��,7.4,��
2024/04/16,22:20,0.506,0.775,0.486,0.951,0.685,0.315,0.555,0.518,��,7.7,��
2024/04/16,22:30,0.508,0.775,0.488,0.952,0.684,0.316,0.554,0.519,��,7.9,��
2024/04/16,22:40,0.507,0.775,0.488,0.952,0.685,0.316,0.555,0.517,��,7.7,��
2024/04/16,22:50,0.508,0.775,0.488,0.951,0.683,0.317,0.556,0.516,��,7.7,��
2024/04/16,23:00,0.507,0.776,0.487,0.951,0.685,0.316,0.555,0.517,��,7.2,��
2024/04/16,23:10,0.507,0.777,0.487,0.952,0.684,0.317,0.554,0.518,��,7.0,��
2024/04/16,23:20,0.506,0.774,0.488,0.951,0.684,0.317,0.555,0.517,��,7.6,��
2024/04/16,23:30,0.508,0.776,0.488,0.950,0.685,0.316,0.555,0.518,��,6.4,��
2024/04/16,23:40,0.506,0.774,0.487,0.949,0.685,0.316,0.555,0.516,��,6.1,��
2024/04/16,23:50,0.505,0.775,0.487,0.950,0.684,0.317,0.553,0.517,��,5.3,��
